Flag for U.S.A. Weather past 2 weeks in Lincoln, Nebraska, U.S.A.

Now
89 °F

Sunny.


Feels Like: 95 °F
Forecast: 77 / 95 °F
Wind: No wind

Location: Lincoln Municipal Airport

Current Time: Aug 21, 2014 at 5:11:24 PM

Latest Report: Aug 21, 2014 at 4:54 PM


Visibility: 9 mi

Pressure: 29.80 "Hg

Humidity: 55%

Dew point: 71 °F

Location of LincolnLocation

Historic Weather in Lincoln — Graph

°F

Lincoln temperature yesterday

Maximum temperature yesterday: 95 °F (at 3:54 PM)
Minimum temperature yesterday: 74 °F (at 3:54 AM)
Average temperature yesterday: 84 °F

Past Weeks' High & Low Weather Summary

 TemperatureHumidityPressure
High95 °F (Aug 20, 3:54 PM)96% (Aug 7, 4:54 AM)30.18 "Hg (Aug 7, 4:54 AM)
Low52 °F (Aug 12, 5:54 AM)35% (Aug 13, 2:54 PM)29.71 "Hg (Aug 20, 7:54 PM)
Average75 °F71%29.94 "Hg
* Reported Aug 6 3:54 PM — Aug 21 3:54 PM, Lincoln, Weather by CustomWeather, © 2014

Note: Actual official high and low records may vary slightly from our data, if they occured in-between our weather recording intervals... More about our weather records

Advertising

Lincoln weather history for previous 24 hours

 ConditionsComfort  
Time TempWeatherWind HumidityBarometerVisibility
3:54 PM
Aug 21
87 °FSunny.7 mph59%29.80 "Hg9 mi
2:54 PM86 °FSunny.10 mph59%29.80 "Hg9 mi
1:54 PM85 °FSunny.8 mph61%29.81 "Hg9 mi
12:54 PM84 °FSunny.13 mph61%29.79 "Hg9 mi
11:54 AM80 °FSunny.7 mph69%29.78 "Hg9 mi
10:54 AM76 °FScattered clouds.10 mph77%29.77 "Hg9 mi
9:54 AM75 °FLight rain. Broken clouds.13 mph82%29.78 "Hg9 mi
8:54 AM73 °FLight rain. Broken clouds.17 mph88%29.78 "Hg10 mi
7:54 AM72 °FStrong thunderstorms. Partly sunny.8 mph87%29.81 "Hg7 mi
6:54 AM75 °FThundershowers. Passing clouds.6 mph76%29.80 "Hg10 mi
5:54 AM79 °FPassing clouds.8 mph65%29.78 "Hg10 mi
4:54 AM79 °FPassing clouds.7 mph65%29.76 "Hg10 mi
3:54 AM81 °FClear.10 mph58%29.75 "Hg10 mi
2:54 AM82 °FClear.16 mph56%29.72 "Hg10 mi
1:54 AM82 °FClear.16 mph60%29.72 "Hg10 mi
12:54 AM83 °FClear.16 mph61%29.72 "Hg10 mi
11:54 PM
Aug 20
82 °FClear.13 mph65%29.72 "Hg10 mi
10:54 PM83 °FClear.12 mph63%29.73 "Hg10 mi
9:54 PM86 °FClear.12 mph57%29.73 "Hg10 mi
8:54 PM88 °FSunny.10 mph54%29.72 "Hg10 mi
7:54 PM90 °FSunny.13 mph50%29.71 "Hg9 mi
6:54 PM91 °FSunny.15 mph47%29.71 "Hg10 mi
5:54 PM93 °FSunny.17 mph44%29.72 "Hg10 mi
Weather by CustomWeather, © 2014

See weather overviewHow to use our weather pages